| time (UTC) | temp F | wind direction | speed knots | gust knots | rain 1hr in | rain 24hr in | rain mn in | humidity % | barometer mb |
| 20260508060018 | 41 | 308 | 1.7 | 4.3 | 0.00 | 0.01 | 0.00 | 71 | 1007.1 |
| 20260508055038 | 41 | 290 | 0.9 | 3.5 | 0.00 | 0.01 | 0.00 | 76 | 1007.1 |
| 20260508054018 | 42 | 296 | 0.9 | 3.5 | 0.00 | 0.01 | 0.00 | 73 | 1007.2 |
| 20260508053039 | 44 | 320 | 0.9 | 2.6 | 0.00 | 0.01 | 0.00 | 69 | 1007.3 |
| 20260508052016 | 45 | 268 | 0.9 | 1.7 | 0.00 | 0.01 | 0.00 | 61 | 1007.4 |
| 20260508051019 | 44 | 320 | 0.9 | 3.5 | 0.00 | 0.01 | 0.00 | 61 | 1007.5 |
| 20260508050019 | 44 | 288 | 1.7 | 3.5 | 0.00 | 0.01 | 0.00 | 71 | 1007.6 |
| 20260508045019 | 46 | 298 | 0.0 | 1.7 | 0.00 | 0.01 | 0.00 | 66 | 1007.7 |
| 20260508044039 | 46 | 4 | 0.0 | 1.7 | 0.00 | 0.01 | 0.00 | 57 | 1007.6 |
| 20260508043016 | 46 | 318 | 0.9 | 2.6 | 0.00 | 0.01 | 0.00 | 56 | 1007.5 |
| 20260508042017 | 46 | 290 | 0.9 | 3.5 | 0.00 | 0.01 | 0.00 | 62 | 1007.6 |
| 20260508041017 | 47 | 302 | 0.9 | 2.6 | 0.00 | 0.01 | 0.00 | 57 | 1007.7 |
| 20260508040020 | 48 | 337 | 0.9 | 2.6 | 0.00 | 0.01 | 0.00 | 53 | 1007.7 |
| 20260508035040 | 48 | 319 | 0.9 | 4.3 | 0.00 | 0.01 | 0.01 | 53 | 1007.6 |
| 20260508034017 | 48 | 305 | 1.7 | 3.5 | 0.00 | 0.01 | 0.01 | 57 | 1007.7 |
| 20260508033017 | 49 | 321 | 0.9 | 2.6 | 0.00 | 0.01 | 0.01 | 53 | 1007.7 |
| 20260508032018 | 49 | 346 | 0.9 | 3.5 | 0.00 | 0.01 | 0.01 | 51 | 1007.6 |
| 20260508031059 | 49 | 324 | 1.7 | 4.3 | 0.00 | 0.01 | 0.01 | 52 | 1007.5 |
| 20260508030018 | 50 | 328 | 0.9 | 3.5 | 0.00 | 0.01 | 0.01 | 51 | 1007.6 |
| 20260508025018 | 50 | 6 | 0.9 | 2.6 | 0.00 | 0.01 | 0.01 | 50 | 1007.7 |
| 20260508024018 | 51 | 344 | 0.9 | 3.5 | 0.00 | 0.01 | 0.01 | 49 | 1007.6 |
| 20260508023059 | 50 | 337 | 1.7 | 5.2 | 0.00 | 0.01 | 0.01 | 48 | 1007.6 |
| 20260508022019 | 50 | 345 | 0.9 | 3.5 | 0.00 | 0.01 | 0.01 | 51 | 1007.4 |
| 20260508021019 | 51 | 331 | 0.9 | 3.5 | 0.00 | 0.01 | 0.01 | 50 | 1007.2 |
| 20260508020016 | 51 | 318 | 1.7 | 3.5 | 0.00 | 0.01 | 0.01 | 49 | 1007.1 |
| 20260508015019 | 52 | 317 | 0.9 | 2.6 | 0.00 | 0.01 | 0.01 | 49 | 1006.9 |
| 20260508014019 | 51 | 285 | 0.9 | 3.5 | 0.00 | 0.01 | 0.01 | 47 | 1006.7 |
| 20260508013039 | 51 | 279 | 0.9 | 2.6 | 0.00 | 0.01 | 0.01 | 51 | 1006.6 |
| 20260508012019 | 50 | 260 | 0.9 | 2.6 | 0.00 | 0.01 | 0.01 | 54 | 1006.5 |
| 20260508011017 | 50 | 257 | 0.9 | 2.6 | 0.00 | 0.01 | 0.01 | 55 | 1006.4 |
| 20260508010017 | 51 | 285 | 0.0 | 1.7 | 0.00 | 0.01 | 0.01 | 50 | 1006.4 |
| 20260508005016 | 52 | 252 | 0.0 | 2.6 | 0.00 | 0.01 | 0.01 | 46 | 1006.3 |
| 20260508004020 | 52 | 220 | 0.9 | 2.6 | 0.00 | 0.01 | 0.01 | 47 | 1006.1 |
| 20260508003018 | 53 | 233 | 0.9 | 1.7 | 0.00 | 0.01 | 0.01 | 51 | 1006.0 |
| 20260508002018 | 54 | 240 | 0.9 | 1.7 | 0.00 | 0.01 | 0.01 | 46 | 1005.9 |
| 20260508001017 | 55 | 265 | 0.9 | 3.5 | 0.00 | 0.02 | 0.01 | 42 | 1005.8 |
| 20260508000018 | 56 | 269 | 0.9 | 3.5 | 0.00 | 0.02 | 0.01 | 40 | 1005.7 |
| 20260507235018 | 57 | 274 | 1.7 | 4.3 | 0.00 | 0.03 | 0.01 | 38 | 1005.6 |
| 20260507234018 | 58 | 279 | 2.6 | 6.1 | 0.00 | 0.03 | 0.01 | 36 | 1005.6 |
| 20260507233018 | 59 | 291 | 2.6 | 7.0 | 0.00 | 0.03 | 0.01 | 35 | 1005.5 |
| 20260507232018 | 60 | 280 | 2.6 | 5.2 | 0.00 | 0.03 | 0.01 | 35 | 1005.5 |
| 20260507231019 | 60 | 276 | 3.5 | 7.8 | 0.00 | 0.03 | 0.01 | 34 | 1005.4 |
| 20260507230039 | 60 | 280 | 4.3 | 7.8 | 0.00 | 0.03 | 0.01 | 34 | 1005.4 |
| 20260507225019 | 61 | 294 | 3.5 | 8.7 | 0.00 | 0.03 | 0.01 | 33 | 1005.3 |
| 20260507224016 | 61 | 285 | 4.3 | 7.8 | 0.00 | 0.03 | 0.01 | 33 | 1005.1 |
| 20260507223016 | 62 | 287 | 4.3 | 10.4 | 0.00 | 0.04 | 0.01 | 33 | 1005.0 |
| 20260507222020 | 62 | 288 | 4.3 | 9.6 | 0.00 | 0.06 | 0.01 | 34 | 1005.0 |
| 20260507221040 | 62 | 280 | 5.2 | 9.6 | 0.00 | 0.06 | 0.01 | 34 | 1004.9 |
| 20260507220020 | 61 | 280 | 5.2 | 8.7 | 0.00 | 0.07 | 0.01 | 35 | 1004.8 |
| 20260507215017 | 61 | 280 | 4.3 | 7.8 | 0.00 | 0.08 | 0.01 | 35 | 1004.9 |
| 20260507214017 | 62 | 272 | 6.1 | 11.3 | 0.00 | 0.08 | 0.01 | 35 | 1004.9 |
| 20260507213017 | 62 | 303 | 4.3 | 10.4 | 0.00 | 0.09 | 0.01 | 35 | 1004.9 |
| 20260507212016 | 61 | 276 | 4.3 | 8.7 | 0.00 | 0.10 | 0.01 | 37 | 1004.9 |
| 20260507211016 | 62 | 292 | 5.2 | 11.3 | 0.00 | 0.10 | 0.01 | 36 | 1004.9 |
| 20260507210018 | 62 | 291 | 4.3 | 9.6 | 0.00 | 0.12 | 0.01 | 36 | 1004.9 |
| 20260507205018 | 61 | 305 | 4.3 | 8.7 | 0.00 | 0.14 | 0.01 | 37 | 1004.7 |
| 20260507204017 | 62 | 320 | 3.5 | 7.0 | 0.00 | 0.16 | 0.01 | 37 | 1004.7 |
| 20260507203017 | 62 | 286 | 5.2 | 13.9 | 0.00 | 0.18 | 0.01 | 37 | 1004.7 |
| 20260507202018 | 63 | 278 | 5.2 | 10.4 | 0.00 | 0.20 | 0.01 | 35 | 1004.7 |
| 20260507201018 | 62 | 284 | 4.3 | 7.8 | 0.00 | 0.23 | 0.01 | 35 | 1004.7 |
| 20260507200015 | 62 | 282 | 6.1 | 10.4 | 0.00 | 0.24 | 0.01 | 36 | 1004.8 |
| 20260507195018 | 62 | 268 | 7.0 | 11.3 | 0.00 | 0.24 | 0.01 | 37 | 1004.8 |
| 20260507194018 | 62 | 265 | 6.1 | 13.0 | 0.00 | 0.25 | 0.01 | 37 | 1004.9 |
| 20260507193018 | 62 | 286 | 6.1 | 11.3 | 0.00 | 0.26 | 0.01 | 36 | 1004.9 |
| 20260507192038 | 62 | 283 | 5.2 | 10.4 | 0.00 | 0.27 | 0.01 | 36 | 1005.1 |
| 20260507191017 | 62 | 273 | 6.1 | 11.3 | 0.00 | 0.28 | 0.01 | 36 | 1005.1 |
| 20260507190017 | 62 | 265 | 6.1 | 10.4 | 0.00 | 0.28 | 0.01 | 37 | 1005.0 |
| 20260507185017 | 62 | 259 | 5.2 | 10.4 | 0.00 | 0.29 | 0.01 | 37 | 1005.1 |
| 20260507184019 | 62 | 281 | 5.2 | 11.3 | 0.00 | 0.29 | 0.01 | 40 | 1005.2 |
| 20260507183019 | 61 | 273 | 5.2 | 9.6 | 0.00 | 0.30 | 0.01 | 43 | 1005.3 |
| 20260507182017 | 61 | 289 | 5.2 | 10.4 | 0.00 | 0.30 | 0.01 | 44 | 1005.3 |
| 20260507181018 | 61 | 266 | 6.1 | 10.4 | 0.00 | 0.30 | 0.01 | 48 | 1005.4 |
| 20260507180018 | 60 | 281 | 5.2 | 10.4 | 0.00 | 0.30 | 0.01 | 52 | 1005.5 |
| 20260507175018 | 59 | 294 | 5.2 | 9.6 | 0.00 | 0.30 | 0.01 | 55 | 1005.5 |
| 20260507174018 | 60 | 282 | 6.1 | 11.3 | 0.00 | 0.30 | 0.01 | 53 | 1005.4 |
| 20260507173019 | 61 | 255 | 6.1 | 11.3 | 0.00 | 0.30 | 0.01 | 50 | 1005.5 |
| 20260507172019 | 60 | 264 | 6.1 | 12.2 | 0.00 | 0.30 | 0.01 | 51 | 1005.6 |
| 20260507171019 | 60 | 282 | 6.1 | 13.0 | 0.00 | 0.30 | 0.01 | 51 | 1005.8 |
| 20260507170019 | 59 | 266 | 5.2 | 11.3 | 0.00 | 0.30 | 0.01 | 53 | 1005.8 |
| 20260507165059 | 59 | 283 | 4.3 | 9.6 | 0.00 | 0.30 | 0.01 | 55 | 1005.9 |
| 20260507164039 | 59 | 281 | 5.2 | 10.4 | 0.00 | 0.30 | 0.01 | 54 | 1006.0 |
| 20260507163016 | 59 | 255 | 6.1 | 9.6 | 0.00 | 0.30 | 0.01 | 55 | 1006.0 |
| 20260507162016 | 59 | 258 | 6.1 | 8.7 | 0.00 | 0.30 | 0.01 | 53 | 1006.0 |
| 20260507161040 | 57 | 286 | 3.5 | 8.7 | 0.00 | 0.30 | 0.01 | 58 | 1006.1 |
| 20260507160040 | 54 | 268 | 2.6 | 6.1 | 0.00 | 0.30 | 0.01 | 69 | 1006.3 |
| 20260507155037 | 54 | 215 | 1.7 | 5.2 | 0.00 | 0.30 | 0.01 | 70 | 1006.4 |
| 20260507154017 | 55 | 212 | 2.6 | 7.0 | 0.00 | 0.30 | 0.01 | 68 | 1006.5 |
| 20260507153017 | 54 | 215 | 2.6 | 5.2 | 0.00 | 0.30 | 0.01 | 70 | 1006.6 |
| 20260507152017 | 54 | 218 | 2.6 | 7.0 | 0.00 | 0.30 | 0.01 | 74 | 1006.7 |
| 20260507151018 | 55 | 208 | 1.7 | 5.2 | 0.00 | 0.30 | 0.01 | 72 | 1006.8 |
| 20260507150020 | 55 | 206 | 2.6 | 7.0 | 0.00 | 0.30 | 0.01 | 71 | 1006.7 |
| 20260507145018 | 54 | 214 | 2.6 | 6.1 | 0.00 | 0.30 | 0.01 | 71 | 1006.7 |
| 20260507144018 | 54 | 205 | 2.6 | 7.0 | 0.00 | 0.30 | 0.01 | 74 | 1006.7 |
| 20260507143018 | 54 | 212 | 2.6 | 5.2 | 0.00 | 0.30 | 0.01 | 72 | 1006.7 |
| 20260507142019 | 53 | 218 | 2.6 | 6.1 | 0.00 | 0.30 | 0.01 | 76 | 1006.8 |
| 20260507141018 | 53 | 217 | 1.7 | 6.1 | 0.00 | 0.30 | 0.01 | 78 | 1006.9 |
| 20260507140019 | 53 | 215 | 2.6 | 6.1 | 0.00 | 0.30 | 0.01 | 78 | 1007.0 |
| 20260507135016 | 53 | 204 | 1.7 | 6.1 | 0.00 | 0.30 | 0.01 | 79 | 1007.1 |
| 20260507134019 | 54 | 223 | 1.7 | 5.2 | 0.00 | 0.30 | 0.01 | 76 | 1007.2 |
| 20260507133019 | 55 | 255 | 2.6 | 6.1 | 0.00 | 0.30 | 0.01 | 70 | 1007.2 |
| 20260507132019 | 54 | 327 | 2.6 | 5.2 | 0.00 | 0.30 | 0.01 | 68 | 1007.3 |
| 20260507131019 | 54 | 299 | 3.5 | 7.0 | 0.00 | 0.30 | 0.01 | 69 | 1007.4 |
| 20260507130016 | 54 | 295 | 3.5 | 8.7 | 0.00 | 0.30 | 0.01 | 70 | 1007.4 |
| 20260507125020 | 53 | 290 | 3.5 | 7.8 | 0.00 | 0.30 | 0.01 | 69 | 1007.3 |
| 20260507124020 | 53 | 308 | 3.5 | 7.8 | 0.00 | 0.30 | 0.01 | 70 | 1007.4 |
| 20260507123020 | 52 | 312 | 2.6 | 5.2 | 0.00 | 0.30 | 0.01 | 74 | 1007.3 |
| 20260507122040 | 51 | 283 | 2.6 | 5.2 | 0.00 | 0.30 | 0.01 | 80 | 1007.3 |
| 20260507121018 | 50 | 300 | 1.7 | 5.2 | 0.00 | 0.30 | 0.01 | 84 | 1007.2 |
| 20260507120018 | 50 | 289 | 2.6 | 6.1 | 0.00 | 0.30 | 0.01 | 89 | 1007.2 |
| 20260507115017 | 49 | 272 | 0.9 | 3.5 | 0.00 | 0.30 | 0.01 | 91 | 1007.2 |
| 20260507114018 | 49 | 287 | 1.7 | 4.3 | 0.00 | 0.30 | 0.01 | 92 | 1007.4 |
| 20260507113023 | 49 | 331 | 0.9 | 2.6 | 0.00 | 0.30 | 0.01 | 93 | 1007.1 |
| 20260507112041 | 48 | 322 | 0.9 | 3.5 | 0.00 | 0.30 | 0.01 | 93 | 1007.1 |
| 20260507111019 | 48 | 323 | 0.9 | 3.5 | 0.00 | 0.30 | 0.01 | 94 | 1007.1 |
| 20260507110019 | 48 | 317 | 1.7 | 3.5 | 0.00 | 0.30 | 0.01 | 94 | 1007.2 |
| 20260507105059 | 48 | 302 | 0.9 | 2.6 | 0.00 | 0.30 | 0.01 | 94 | 1007.3 |
| 20260507104019 | 48 | 322 | 0.9 | 3.5 | 0.00 | 0.30 | 0.01 | 94 | 1007.1 |
| 20260507103019 | 48 | 328 | 1.7 | 3.5 | 0.00 | 0.30 | 0.01 | 94 | 1007.2 |
| 20260507102019 | 48 | 311 | 1.7 | 3.5 | 0.00 | 0.30 | 0.01 | 95 | 1007.3 |
| 20260507101040 | 48 | 288 | 1.7 | 3.5 | 0.00 | 0.30 | 0.01 | 95 | 1007.3 |
| 20260507100020 | 48 | 304 | 1.7 | 4.3 | 0.00 | 0.30 | 0.01 | 96 | 1007.0 |
| 20260507095019 | 48 | 315 | 1.7 | 3.5 | 0.00 | 0.30 | 0.01 | 95 | 1007.0 |
| 20260507094023 | 48 | 288 | 1.7 | 3.5 | 0.01 | 0.30 | 0.01 | 95 | 1007.3 |
| 20260507093040 | 48 | 315 | 0.9 | 3.5 | 0.01 | 0.30 | 0.01 | 95 | 1006.7 |
| 20260507092017 | 48 | 289 | 1.7 | 3.5 | 0.01 | 0.30 | 0.01 | 94 | 1007.0 |
| 20260507091017 | 49 | 304 | 0.9 | 2.6 | 0.01 | 0.30 | 0.01 | 94 | 1006.7 |
| 20260507090100 | 49 | 316 | 0.9 | 2.6 | 0.01 | 0.30 | 0.01 | 93 | 1006.6 |
| 20260507085041 | 49 | 335 | 0.9 | 3.5 | 0.01 | 0.30 | 0.01 | 91 | 1006.5 |
| 20260507084059 | 49 | 348 | 1.7 | 4.3 | 0.01 | 0.29 | 0.01 | 90 | 1006.3 |
| 20260507083018 | 50 | 328 | 1.7 | 3.5 | 0.00 | 0.29 | 0.00 | 90 | 1006.6 |
| 20260507082018 | 50 | 314 | 1.7 | 5.2 | 0.00 | 0.29 | 0.00 | 90 | 1006.6 |
| 20260507081018 | 50 | 306 | 1.7 | 3.5 | 0.00 | 0.29 | 0.00 | 90 | 1006.3 |
| 20260507080018 | 50 | 321 | 0.9 | 2.6 | 0.00 | 0.29 | 0.00 | 91 | 1006.2 |
| 20260507075039 | 50 | 302 | 1.7 | 4.3 | 0.00 | 0.29 | 0.00 | 90 | 1006.0 |
| 20260507074019 | 50 | 312 | 1.7 | 4.3 | 0.00 | 0.29 | 0.00 | 90 | 1005.9 |
| 20260507073019 | 51 | 318 | 1.7 | 5.2 | 0.00 | 0.29 | 0.00 | 89 | 1006.0 |
| 20260507072039 | 51 | 296 | 2.6 | 5.2 | 0.00 | 0.29 | 0.00 | 89 | 1006.0 |
| 20260507071019 | 51 | 290 | 3.5 | 7.0 | 0.00 | 0.29 | 0.00 | 90 | 1005.8 |
| 20260507070019 | 51 | 291 | 2.6 | 7.0 | 0.00 | 0.29 | 0.00 | 94 | 1005.5 |
| 20260507065020 | 51 | 291 | 1.7 | 4.3 | 0.00 | 0.29 | 0.00 | 95 | 1005.5 |
| 20260507064017 | 51 | 288 | 2.6 | 5.2 | 0.00 | 0.29 | 0.00 | 95 | 1005.4 |
| 20260507063020 | 52 | 282 | 1.7 | 4.3 | 0.00 | 0.29 | 0.00 | 94 | 1005.6 |
| 20260507062020 | 52 | 277 | 1.7 | 2.6 | 0.00 | 0.29 | 0.00 | 92 | 1005.5 |
| 20260507061020 | 52 | 277 | 1.7 | 4.3 | 0.00 | 0.29 | 0.00 | 90 | 1005.5 |